TimeEDT,TemperatureF,Dew PointF,Humidity,Sea Level PressureIn,VisibilityMPH,Wind Direction,Wind SpeedMPH,Gust SpeedMPH,PrecipitationIn,Events,Conditions,WindDirDegrees,DateUTC
12:53 AM,55.9,55.0,97,30.27,10.0,Calm,Calm,-,N/A,,Clear,0,2013-10-30 04:53:00
1:53 AM,53.1,53.1,100,30.25,6.0,Calm,Calm,-,N/A,,Clear,0,2013-10-30 05:53:00
2:26 AM,53.6,53.6,100,30.26,2.5,Calm,Calm,-,N/A,,Clear,0,2013-10-30 06:26:00
2:37 AM,53.6,53.6,100,30.26,4.0,Calm,Calm,-,N/A,,Clear,0,2013-10-30 06:37:00
2:53 AM,52.0,52.0,100,30.25,6.0,Calm,Calm,-,N/A,,Clear,0,2013-10-30 06:53:00
3:04 AM,51.8,51.8,100,30.25,2.0,Calm,Calm,-,N/A,,Clear,0,2013-10-30 07:04:00
3:23 AM,51.8,51.8,100,30.25,4.0,Calm,Calm,-,N/A,,Clear,0,2013-10-30 07:23:00
3:46 AM,51.8,51.8,100,30.24,1.8,Calm,Calm,-,N/A,,Clear,0,2013-10-30 07:46:00
3:53 AM,51.1,51.1,100,30.24,1.2,Calm,Calm,-,N/A,,Clear,0,2013-10-30 07:53:00
4:12 AM,51.8,51.8,100,30.24,3.0,Calm,Calm,-,N/A,,Clear,0,2013-10-30 08:12:00
4:53 AM,53.1,53.1,100,30.24,8.0,Calm,Calm,-,N/A,,Clear,0,2013-10-30 08:53:00
5:53 AM,51.1,51.1,100,30.26,3.0,Calm,Calm,-,N/A,,Clear,0,2013-10-30 09:53:00
6:40 AM,51.8,51.8,100,30.27,1.8,Calm,Calm,-,N/A,,Clear,0,2013-10-30 10:40:00
6:49 AM,51.8,51.8,100,30.27,3.0,Calm,Calm,-,N/A,,Clear,0,2013-10-30 10:49:00
6:53 AM,52.0,52.0,100,30.27,4.0,Calm,Calm,-,N/A,,Clear,0,2013-10-30 10:53:00
7:06 AM,51.8,51.8,100,30.27,2.0,Calm,Calm,-,N/A,,Clear,0,2013-10-30 11:06:00
7:20 AM,51.8,51.8,100,30.27,4.0,Calm,Calm,-,N/A,,Clear,0,2013-10-30 11:20:00
7:53 AM,51.1,51.1,100,30.27,4.0,Calm,Calm,-,N/A,,Clear,0,2013-10-30 11:53:00
8:03 AM,51.8,51.8,100,30.28,2.5,Calm,Calm,-,N/A,,Clear,0,2013-10-30 12:03:00
8:11 AM,53.6,53.6,100,30.29,5.0,Calm,Calm,-,N/A,,Clear,0,2013-10-30 12:11:00
8:53 AM,55.9,55.9,100,30.30,4.0,Calm,Calm,-,N/A,,Clear,0,2013-10-30 12:53:00
9:53 AM,64.0,62.1,93,30.30,9.0,ENE,3.5,-,N/A,,Clear,70,2013-10-30 13:53:00
10:53 AM,73.0,60.1,64,30.31,10.0,Calm,Calm,-,N/A,,Clear,0,2013-10-30 14:53:00
11:53 AM,75.9,55.9,50,30.30,10.0,Variable,3.5,-,N/A,,Clear,0,2013-10-30 15:53:00
12:53 PM,79.0,53.1,40,30.27,10.0,Variable,4.6,-,N/A,,Clear,0,2013-10-30 16:53:00
1:53 PM,80.1,53.1,39,30.23,10.0,East,6.9,-,N/A,,Clear,100,2013-10-30 17:53:00
2:53 PM,80.1,52.0,38,30.21,10.0,SE,8.1,-,N/A,,Clear,130,2013-10-30 18:53:00
3:53 PM,80.1,52.0,38,30.19,10.0,NE,8.1,-,N/A,,Clear,40,2013-10-30 19:53:00
4:53 PM,79.0,52.0,39,30.19,10.0,ESE,3.5,-,N/A,,Clear,120,2013-10-30 20:53:00
5:53 PM,77.0,53.1,43,30.18,10.0,SE,3.5,-,N/A,,Clear,130,2013-10-30 21:53:00
6:53 PM,66.9,57.0,70,30.19,9.0,Calm,Calm,-,N/A,,Clear,0,2013-10-30 22:53:00
7:53 PM,62.1,59.0,90,30.20,10.0,East,3.5,-,N/A,,Clear,80,2013-10-30 23:53:00
8:53 PM,64.9,57.0,75,30.20,10.0,ESE,3.5,-,N/A,,Clear,110,2013-10-31 00:53:00
9:53 PM,63.0,57.9,84,30.19,10.0,ESE,4.6,-,N/A,,Clear,110,2013-10-31 01:53:00
10:53 PM,61.0,57.9,90,30.20,10.0,Calm,Calm,-,N/A,,Clear,0,2013-10-31 02:53:00
11:53 PM,55.9,55.9,100,30.20,8.0,Calm,Calm,-,N/A,,Clear,0,2013-10-31 03:53:00